View from above orbital plane
|
View from above satellite
|
Ground track
|
The orbit data is extracted from the following two-line orbital elements,
1 14690U 84012A 21106.86549953 0.00003800 00000-0 21216-3 0 03
2 14690 63.2864 12.6935 0917153 89.3933 270.6067 13.60157388 08
Epoch (UTC): | 16 April 2021 20:46:19 |
Eccentricity: | 0.0917153 |
inclination: | 63.2864° |
perigee height: | 355 km |
apogee height: | 1715 km |
right ascension of ascending node: | 12.6935° |
argument of perigee: | 89.3933° |
revolutions per day: | 13.60157388 |
mean anomaly at epoch: | 270.6067° |
orbit number at epoch: | 0 |
The dashed part of the orbit path shows where the satellite is in the earth's shadow,
|
|